Regional Weather Roundup
Issued by NWS Jackson, KY

Home | Current Version | Previous Version | Text Only | Print | Product List | Glossary On
Versions: 1 2 3 4 5 6 7 8 9 10 11 12 13 14 15 16 17 18 19 20 21 22 23 24 25 26 27 28
000
ASUS43 KJKL 290810
RWRJKL

EAST KENTUCKY HOURLY WEATHER ROUNDUP
NATIONAL WEATHER SERVICE JACKSON KY
400 AM EDT FRI JUL 29 2016

NOTE: "FAIR" INDICATES FEW OR NO CLOUDS BELOW 12,000 FEET WITH
NO SIGNIFICANT WEATHER AND/OR OBSTRUCTIONS TO VISIBILITY.

* THESE REPORTS ARE NOT UNDER NWS QUALITY CONTROL AND MAY NOT
  REPORT WEATHER SUCH AS PRECIPITATION AND FOG.

KYZ079-080-083-085-087-088-110-112-115-119-120-290900
...EASTERN KENTUCKY...

CITY           SKY/WX    TMP DP  RH WIND       PRES   REMARKS
JACKSON        FOG       69  68  96 CALM      29.98R VSB 3/4
LONDON         CLOUDY    69  67  93 S3        29.98R
SOMERSET*      MOCLDY    68  68 100 CALM      29.98R
MONTICELLO*    MOCLDY   N/A N/A N/A W9        29.99R
WILLIAMSBURG*  CLOUDY    66  66 100 CALM      30.00R VSB<1/4
MIDDLESBORO*   CLOUDY    68  68 100 CALM      30.01R
HARLAN APT*    CLOUDY    68  66  94 CALM      30.01R
PIKE CO APT*   CLOUDY    68  68 100 CALM      29.99R
BIG SANDY APT* CLOUDY    70  70 100 CALM      29.97S
MOREHEAD APT*  CLOUDY    72  70  94 SW7       29.96S
ASHLAND*       CLOUDY    72  72 100 SW3       29.91S
$$

KYZ035-036-041-042-044-050-067-078-099-290900
...CENTRAL KENTUCKY...

CITY           SKY/WX    TMP DP  RH WIND       PRES   REMARKS
MT STERLING*   CLOUDY    70  70 100 SW6       29.96R FOG
FLEMING/MASON* CLOUDY    69  69  99 CALM      29.94S FOG
DANVILLE*      MOCLDY    70  68  94 SW5       29.97R
LEXINGTON      PTCLDY    71  69  93 S5        29.94R
FRANKFORT      CLEAR     73  70  90 CALM      29.92R
LOUISVILLE     PTCLDY    75  72  90 W7        29.91R
LEBANON*         N/A     72  72 100 S6        29.95R
GLASGOW*       CLOUDY    73  73 100 SW3       29.94R
BOWLING GREEN  CLOUDY    74  71  91 W3        29.94R
$$

KYZ091>093-OHZ055-061-077-WVZ005-015-034-035-042-290900
...SOUTHERN OHIO/WEST VIRGINIA...

CITY           SKY/WX    TMP DP  RH WIND       PRES   REMARKS
COVINGTON      PTCLDY    73  72  96 W6        29.92R FOG
COLUMBUS       FOG       68  68 100 E3        29.91S VSB 3/4
DAYTON         PTCLDY    70  67  90 W5        29.92S
WILMINGTON     FOG       69  69 100 S3        29.92S VSB 1/4
HUNTINGTON     CLOUDY    72  70  93 SW3       29.94R
CHARLESTON     CLOUDY    71  69  93 CALM      29.94R FOG
PINEVILLE*     CLOUDY    69  66  90 MISG      30.03S
BECKLEY        CLOUDY    67  65  93 NW3       30.00F
BLUEFIELD      CLOUDY    65  63  93 W5        30.02F
LOGAN CO APT*  LGT RAIN  70  70 100 CALM      29.96F VSB 1/4
$$

VAZ002-007-008-TNZ017-027-036-066-071-290900
...SOUTHWEST VIRGINIA/EAST TENNESSEE...

CITY           SKY/WX    TMP DP  RH WIND       PRES   REMARKS
WISE*          CLOUDY    66  64  94 CALM      30.05R
JONESVILLE*    FOG       68  68 100 SW3       30.04R VSB 1/2
ABINGDON*      CLOUDY    70  70 100 W7        30.01S
BRISTOL        CLOUDY    70  68  93 W8        30.00R
MORRISTOWN*    CLOUDY    72  72 100 W7        30.00R
SEVIERVILLE*   MOSUNNY   72  70  94 W3        29.99R
KNOXVILLE      MOCLDY    73  71  93 SW6       29.99R
OAK RIDGE      CLOUDY    73  71  93 CALM      30.01R
CROSSVILLE     CLOUDY    71  70  96 W8        30.04S FOG
NASHVILLE      CLOUDY    78  73  84 VRB5      29.96R
$$

...KEY TO REMARKS...
VSB - VISIBILITY IN MILES
WCI - WIND CHILL INDEX
HX  - HEAT INDEX

$$




USA.gov is the U.S. government's official web portal to all federal, state and local government web resources and services.